Location: Cedar Glade School (historical)
(38.0142°N, 90.2532°W)
Time: 12:16:28
(UTC+00:00)

Daily predictions for brighter satellites

Satellite Brightness Start Highest point End
(mag) Time Altitude Azimuth Time Altitude Azimuth Time Altitude Azimuth
Cosmos 2322 Rocket 3.8 12:02:17 13° NW 12:02:34 13° NW 12:05:03 10° NNW
DELTA 2 DEB (DPAF) 4.4 12:00:52 10° SSE 12:05:07 69° ENE 12:09:24 10° N
Cosmos 1634 Rocket 4.0 12:02:47 10° SSW 12:08:54 67° W 12:15:06 10° N
Cosmos 1943 Rocket 4.4 12:06:46 10° N 12:10:45 20° NE 12:14:42 10° E
Milstar 3 Cent rocket 4.3 12:06:34 10° WSW 12:11:22 26° S 12:18:57 10° SE
Cosmos 2285 Rocket 4.2 12:06:32 10° SSW 12:12:50 82° ESE 12:19:14 10° NNE
Cosmos 1331 Rocket 4.5 12:09:38 10° NNW 12:14:51 63° ENE 12:19:58 10° SSE
COSMOS 2428 2.9 12:12:19 10° SW 12:17:46 48° WNW 12:23:18 10° NNE
Cosmos 2333 Rocket 3.6 12:15:01 10° W 12:18:38 17° NW 12:22:16 10° NNW
SMAP 3.1 12:18:37 10° NNE 12:23:18 87° ESE 12:27:56 10° SSW
Cosmos 1980 4.0 12:18:26 10° SSW 12:24:03 77° ESE 12:29:44 10° NNE
NOSS 0 Rocket 3.9 12:18:18 10° SSW 12:24:32 79° WNW 12:30:49 10° NNE
Cosmos 1933 4.3 12:26:25 10° NNW 12:29:42 26° W 12:32:59 10° SSW
Cosmos 1076 Rocket 3.5 12:27:08 10° SSW 12:31:24 75° W 12:35:43 10° N
Cosmos 1634 Rocket 4.2 23:00:29 10° N 23:06:49 87° W 23:13:09 10° S
DMSP B5D2-2 4.1 23:03:26 10° NNE 23:08:40 80° ESE 23:13:52 10° S
SJ-7 4.3 23:09:39 10° SSE 23:13:36 83° ENE 23:17:37 10° N
Helios 1A 3.7 23:12:28 10° NNE 23:16:12 32° E 23:19:55 10° SSE
Cosmos 1500 3.2 23:14:19 10° N 23:17:44 46° E 23:21:07 10° SSE
CZ-2D R/B 3.6 23:14:20 10° S 23:17:59 67° W 23:21:39 10° NNW
Cosmos 2082 3.8 23:12:55 10° SSW 23:18:31 84° WNW 23:24:10 10° NNE
Lacrosse 5 3.4 23:15:40 10° SSE 23:19:08 19° ESE 23:22:35 10° ENE
Cosmos 2142 Rocket 4.4 23:14:05 10° N 23:20:12 69° E 23:26:19 10° SSE
SMAP 3.0 23:19:48 10° SSE 23:24:25 72° ENE 23:29:04 10° N
Cosmos-2242 3.6 23:21:17 10° SSE 23:25:16 37° E 23:29:15 10° NNE
NOSS 3-4 (A) 4.0 23:18:08 10° NNW 23:25:21 75° ENE 23:33:32 10° SE
NOSS 3-4 (C) 3.9 23:18:17 10° NNW 23:25:25 75° ENE 23:33:31 10° SE
Cosmos 1437 Rocket 2.7 23:22:02 10° N 23:25:46 82° W 23:29:31 10° S
CZ-2C R/B 3.1 23:25:17 10° S 23:28:47 64° W 23:32:19 10° NNW
CZ-2C R/B 1.3 23:28:52 10° WSW 23:31:12 34° S 23:33:29 10° ESE
Cosmos 1140 Rocket 4.4 23:28:04 10° N 23:32:23 26° ENE 23:36:39 10° ESE
USA 234 3.5 23:26:35 10° NE 23:33:04 69° NW 23:39:33 10° WSW
Cosmos 2279 Rocket 4.1 23:28:16 10° N 23:34:31 81° W 23:40:43 10° S
Cosmos 1812 3.0 23:32:11 10° SSE 23:35:40 42° E 23:39:09 10° NNE
Helios 1B rocket 4.2 23:34:05 10° SSW 23:37:40 34° W 23:41:16 10° NNW
Cosmos 2151 3.5 23:34:57 10° NNW 23:39:11 62° W 23:43:22 10° S
CZ-4B R/B 3.6 23:36:41 10° SSE 23:40:16 87° WSW 23:43:53 10° NNW
APEX 3.1 23:38:52 10° S 23:41:54 38° ESE 23:43:30 21° NE
NOAA 6 4.4 23:41:12 10° SE 23:45:59 41° ENE 23:50:47 10° N
Cosmos 1092 Rocket 4.4 23:40:46 10° SSE 23:46:19 37° E 23:51:53 10° NNE
Meteor 1-31 Rocket 2.9 23:42:41 10° S 23:46:21 73° W 23:50:03 10° NNW
Nadezhda 4 Rocket 3.9 23:43:13 10° S 23:49:23 79° E 23:55:31 10° N
Cosmos 2227 4.3 23:44:39 10° S 23:50:19 63° ESE 23:56:00 10° NNE
Meteor 1-20 Rocket 4.3 23:45:31 10° N 23:50:55 50° ENE 23:56:24 10° SSE
Cosmos 2263 Rocket 3.0 23:46:17 10° SW 23:51:39 51° WNW 23:57:05 10° NNE
Cosmos 1844 Rocket 3.5 23:48:19 10° SSE 23:53:04 30° ESE 23:55:46 20° ENE
Tiangong -0.7 23:51:54 10° W 23:54:52 37° SSW 23:57:47 10° SE
